Regional Weather Roundup
Issued by NWS Jackson, KY

Home | Current Version | Previous Version | Text Only | Print | Product List | Glossary On
Versions: 1 2 3 4 5 6 7 8 9 10 11 12 13 14 15 16 17 18 19 20 21 22 23 24 25 26 27 28 29 30 31 32 33 34 35 36 37 38 39 40 41 42 43 44 45 46 47 48 49 50
000
ASUS43 KJKL 300805
RWRJKL

EAST KENTUCKY HOURLY WEATHER ROUNDUP
NATIONAL WEATHER SERVICE JACKSON KY
400 AM EDT WED JUL 30 2014

NOTE: "FAIR" INDICATES FEW OR NO CLOUDS BELOW 12,000 FEET WITH
NO SIGNIFICANT WEATHER AND/OR OBSTRUCTIONS TO VISIBILITY.

* THESE REPORTS ARE NOT UNDER NWS QUALITY CONTROL AND MAY NOT
  REPORT WEATHER SUCH AS PRECIPITATION AND FOG.

KYZ079-080-083-085-087-088-110-112-115-119-120-300900
...EASTERN KENTUCKY...

CITY           SKY/WX    TMP DP  RH WIND       PRES   REMARKS
JACKSON        CLEAR     55  53  93 CALM      30.11R
LONDON         CLEAR     55  52  89 CALM      30.12R FOG
SOMERSET*      CLEAR     54  54 100 CALM      30.12S
MONTICELLO*    CLEAR     54  53  96 CALM      30.13R
WILLIAMSBURG*  CLOUDY    52  52 100 CALM      30.12
MIDDLESBORO*   CLOUDY    54  53  98 CALM      30.13S
HARLAN APT*    CLOUDY    54  54 100 MISG      30.13R VSB<1/4
BLACK MTN*       N/A     48  48 100 VRB3        N/A
PIKEVILLE APT* CLEAR     55  54  94 CALM      30.10S
BIG SANDY*     MOSUNNY   55  55  99 CALM      30.10S FOG
MOREHEAD APT*  CLOUDY    57  55  94 CALM      30.10S FOG
$$

KYZ035-036-041-042-044-050-067-078-099-300900
...CENTRAL KENTUCKY...

CITY           SKY/WX    TMP DP  RH WIND       PRES   REMARKS
MT STERLING*   CLOUDY    55  55 100 SW5       30.10S
FLEMING/MASON* CLEAR     56  54  92 S5        30.08S
DANVILLE*      CLEAR     54  54 100 CALM      30.10S
RICHMOND*      CLEAR     55  52  88 S3        30.09S
LEXINGTON      CLEAR     59  54  83 S6        30.08S
FRANKFORT      PTCLDY    56  55  97 CALM      30.07S
$$

KYZ091>093-OHZ055-061-077-WVZ005-015-034-035-042-300900
...SOUTHERN OHIO/WEST VIRGINIA...

CITY           SKY/WX    TMP DP  RH WIND       PRES   REMARKS
COVINGTON      PTCLDY    60  57  89 CALM      30.05F
COLUMBUS       PTCLDY    61  53  75 S3        30.03S
DAYTON         CLEAR     58  56  93 SW5       30.04F
WILMINGTON     PTCLDY    56  53  90 S5        30.05S
HUNTINGTON     PTCLDY    54  54 100 CALM      30.07S FOG
CHARLESTON     FOG       56  56 100 CALM      30.07S VSB 1/2
PINEVILLE*     FOG       56  56 100 MISG      30.16R VSB 1/4
BECKLEY        CLEAR     51  49  92 CALM      30.12S FOG
BLUEFIELD      CLEAR     54  49  83 SW3       30.13S
$$

VAZ002-007-008-TNZ017-027-036-066-071-300900
...SOUTHWEST VIRGINIA/EAST TENNESSEE...

CITY           SKY/WX    TMP DP  RH WIND       PRES   REMARKS
WISE*          CLEAR     52  52 100 CALM      30.14S
JONESVILLE*      N/A     50  50 100 CALM      30.14R FOG
ABINGDON*      CLEAR     53  52  95 CALM      30.12R
BRISTOL        CLEAR     52  49  89 CALM      30.11S
KNOXVILLE      CLEAR     56  55  97 NE3       30.09S
OAK RIDGE      CLEAR     56  54  93 CALM      30.12S
CROSSVILLE     CLEAR     53  51  93 CALM      30.13S
NASHVILLE      CLEAR     61  57  87 CALM      30.10S
$$

...KEY TO REMARKS...
VSB - VISIBILITY IN MILES
WCI - WIND CHILL INDEX
HX  - HEAT INDEX

$$


USA.gov is the U.S. government's official web portal to all federal, state and local government web resources and services.